Time,TemperatureF,DewpointF,PressureIn,WindDirection,WindDirectionDegrees,WindSpeedMPH,WindSpeedGustMPH,Humidity,HourlyPrecipIn,Conditions,Clouds,dailyrainin,SoftwareType,DateUTC
2013-05-22 00:04:00,54.0,53.0,29.96,ENE,67,1.0,10.0,96,0.00,,,0.05,,2013-05-22 04:04:00,
2013-05-22 00:13:00,54.0,53.0,29.96,ENE,67,1.0,10.0,96,0.00,,,0.05,,2013-05-22 04:13:00,
2013-05-22 00:23:00,54.0,53.0,29.96,NE,52,1.0,7.0,96,0.00,,,0.05,,2013-05-22 04:23:00,
2013-05-22 00:33:00,54.0,53.0,29.96,NE,48,1.0,7.0,96,0.00,,,0.05,,2013-05-22 04:33:00,
2013-05-22 00:43:00,53.0,52.0,29.97,NE,44,1.0,8.0,96,0.00,,,0.05,,2013-05-22 04:43:00,
2013-05-22 00:53:00,53.0,52.0,29.97,NE,44,1.0,8.0,96,0.00,,,0.05,,2013-05-22 04:53:00,
2013-05-22 01:02:00,53.0,52.0,29.97,ESE,105,1.0,10.0,96,0.00,,,0.05,,2013-05-22 05:02:00,
2013-05-22 01:12:00,53.0,52.0,30.00,NNE,22,2.0,10.0,97,0.00,,,0.05,,2013-05-22 05:12:00,
2013-05-22 01:21:00,53.0,52.0,30.00,NNE,22,2.0,10.0,97,0.00,,,0.05,,2013-05-22 05:21:00,
2013-05-22 01:32:00,53.0,52.0,30.00,NNE,22,2.0,10.0,97,0.00,,,0.05,,2013-05-22 05:32:00,
2013-05-22 01:42:00,53.0,52.0,30.00,NNE,22,2.0,10.0,97,0.00,,,0.05,,2013-05-22 05:42:00,
2013-05-22 01:52:00,53.0,52.0,30.00,NNE,22,2.0,10.0,97,0.00,,,0.05,,2013-05-22 05:52:00,
2013-05-22 02:01:00,53.0,52.0,29.99,NE,54,2.0,10.0,96,0.00,,,0.05,,2013-05-22 06:01:00,
2013-05-22 02:12:00,53.0,52.0,29.99,NE,54,2.0,10.0,96,0.00,,,0.05,,2013-05-22 06:12:00,
2013-05-22 02:21:00,52.0,51.0,29.98,NE,37,3.0,12.0,97,0.00,,,0.05,,2013-05-22 06:21:00,
2013-05-22 02:32:00,52.0,51.0,29.98,NE,51,3.0,12.0,96,0.00,,,0.05,,2013-05-22 06:32:00,
2013-05-22 02:42:00,52.0,51.0,29.98,NE,49,3.0,11.0,96,0.00,,,0.05,,2013-05-22 06:42:00,
2013-05-22 02:52:00,52.0,51.0,29.98,NE,49,3.0,11.0,96,0.00,,,0.05,,2013-05-22 06:52:00,
2013-05-22 03:01:00,52.0,51.0,29.98,NE,49,3.0,11.0,96,0.00,,,0.05,,2013-05-22 07:01:00,
2013-05-22 03:11:00,52.0,51.0,29.98,NE,49,3.0,11.0,96,0.00,,,0.05,,2013-05-22 07:11:00,
2013-05-22 03:21:00,52.0,51.0,29.96,ESE,115,3.0,11.0,96,0.00,,,0.05,,2013-05-22 07:21:00,
2013-05-22 03:32:00,52.0,51.0,29.96,SSE,161,3.0,10.0,96,0.00,,,0.05,,2013-05-22 07:32:00,
2013-05-22 03:42:00,52.0,51.0,29.96,SSE,161,3.0,10.0,96,0.00,,,0.05,,2013-05-22 07:42:00,
2013-05-22 03:53:00,52.0,51.0,29.95,SE,135,3.0,12.0,96,0.00,,,0.05,,2013-05-22 07:53:00,
2013-05-22 04:02:00,52.0,51.0,29.95,SE,135,3.0,12.0,96,0.00,,,0.05,,2013-05-22 08:02:00,
2013-05-22 04:11:00,52.0,51.0,29.95,SE,135,3.0,12.0,96,0.00,,,0.05,,2013-05-22 08:11:00,
2013-05-22 04:22:00,52.0,51.0,29.96,ENE,68,2.0,13.0,96,0.00,,,0.05,,2013-05-22 08:22:00,
2013-05-22 04:32:00,52.0,51.0,29.95,ENE,68,0.0,3.0,97,0.00,,,0.05,,2013-05-22 08:32:00,
2013-05-22 04:42:00,52.0,51.0,29.95,ENE,68,0.0,3.0,97,0.00,,,0.05,,2013-05-22 08:42:00,
2013-05-22 04:52:00,52.0,51.0,29.96,SE,132,0.0,0.0,97,0.00,,,0.05,,2013-05-22 08:52:00,
2013-05-22 05:01:00,52.0,51.0,29.96,SE,132,0.0,0.0,97,0.00,,,0.05,,2013-05-22 09:01:00,
2013-05-22 05:12:00,52.0,51.0,29.96,SE,132,0.0,0.0,97,0.00,,,0.05,,2013-05-22 09:12:00,
2013-05-22 05:22:00,52.0,51.0,29.96,SE,132,0.0,0.0,97,0.00,,,0.05,,2013-05-22 09:22:00,
2013-05-22 05:33:00,53.0,52.0,29.99,NNE,23,1.0,9.0,97,0.00,,,0.05,,2013-05-22 09:33:00,
2013-05-22 05:43:00,53.0,52.0,29.99,NNE,23,1.0,9.0,97,0.00,,,0.05,,2013-05-22 09:43:00,
2013-05-22 05:53:00,52.0,51.0,29.98,North,5,1.0,6.0,97,0.00,,,0.05,,2013-05-22 09:53:00,
2013-05-22 06:03:00,52.0,51.0,29.97,ENE,69,0.0,3.0,96,0.00,,,0.05,,2013-05-22 10:03:00,
2013-05-22 06:12:00,52.0,51.0,29.97,ENE,69,0.0,3.0,96,0.00,,,0.05,,2013-05-22 10:12:00,
2013-05-22 06:23:00,52.0,51.0,29.97,ENE,59,0.0,0.0,96,0.00,,,0.05,,2013-05-22 10:23:00,
2013-05-22 06:33:00,52.0,51.0,29.96,ENE,59,0.0,0.0,96,0.00,,,0.05,,2013-05-22 10:33:00,
2013-05-22 06:42:00,52.0,51.0,29.96,ENE,59,0.0,0.0,96,0.00,,,0.05,,2013-05-22 10:42:00,
2013-05-22 06:52:00,52.0,51.0,29.95,ESE,117,1.0,4.0,97,0.00,,,0.05,,2013-05-22 10:52:00,
2013-05-22 07:02:00,53.0,52.0,29.95,SW,218,1.0,6.0,97,0.00,,,0.05,,2013-05-22 11:02:00,
2013-05-22 07:11:00,53.0,52.0,29.95,SW,218,1.0,6.0,97,0.00,,,0.05,,2013-05-22 11:11:00,
2013-05-22 07:22:00,53.0,52.0,29.95,SW,218,1.0,6.0,97,0.00,,,0.05,,2013-05-22 11:22:00,
2013-05-22 07:32:00,54.0,53.0,29.95,WSW,244,4.0,8.0,97,0.00,,,0.05,,2013-05-22 11:32:00,
2013-05-22 07:42:00,54.0,53.0,29.95,WSW,244,4.0,8.0,97,0.00,,,0.05,,2013-05-22 11:42:00,
2013-05-22 07:53:00,54.0,53.0,29.95,WSW,244,4.0,8.0,97,0.00,,,0.05,,2013-05-22 11:53:00,
2013-05-22 08:02:00,55.0,54.0,29.95,WSW,248,5.0,8.0,97,0.00,,,0.05,,2013-05-22 12:02:00,
2013-05-22 08:12:00,55.0,54.0,29.95,WSW,248,5.0,8.0,97,0.00,,,0.05,,2013-05-22 12:12:00,
2013-05-22 08:22:00,55.0,54.0,29.94,WSW,258,5.0,9.0,96,0.00,,,0.05,,2013-05-22 12:22:00,
2013-05-22 08:32:00,56.0,55.0,29.94,West,269,5.0,11.0,96,0.00,,,0.06,,2013-05-22 12:32:00,
2013-05-22 08:42:00,56.0,55.0,29.94,West,269,5.0,11.0,96,0.00,,,0.06,,2013-05-22 12:42:00,
2013-05-22 08:52:00,56.0,55.0,29.94,West,269,5.0,11.0,96,0.00,,,0.06,,2013-05-22 12:52:00,
2013-05-22 09:02:00,57.0,56.0,29.94,WSW,252,9.0,14.0,96,0.00,,,0.06,,2013-05-22 13:02:00,
2013-05-22 09:12:00,57.0,56.0,29.94,WSW,252,9.0,14.0,96,0.00,,,0.06,,2013-05-22 13:12:00,
2013-05-22 09:22:00,57.0,56.0,29.94,West,261,10.0,14.0,96,0.00,,,0.06,,2013-05-22 13:22:00,
2013-05-22 09:32:00,57.0,56.0,29.93,West,269,8.0,12.0,96,0.00,,,0.06,,2013-05-22 13:32:00,
2013-05-22 09:42:00,57.0,56.0,29.93,West,269,8.0,12.0,96,0.00,,,0.06,,2013-05-22 13:42:00,
2013-05-22 09:52:00,58.0,57.0,29.94,West,275,10.0,13.0,96,0.00,,,0.06,,2013-05-22 13:52:00,
2013-05-22 10:02:00,58.0,57.0,29.94,West,274,5.0,10.0,96,0.00,,,0.06,,2013-05-22 14:02:00,
2013-05-22 10:11:00,58.0,57.0,29.94,West,274,5.0,10.0,96,0.00,,,0.06,,2013-05-22 14:11:00,
2013-05-22 10:22:00,58.0,57.0,29.94,West,274,5.0,10.0,96,0.00,,,0.06,,2013-05-22 14:22:00,
2013-05-22 10:32:00,58.0,57.0,29.95,WNW,289,5.0,12.0,95,0.00,,,0.06,,2013-05-22 14:32:00,
2013-05-22 10:42:00,58.0,57.0,29.95,WNW,289,5.0,12.0,95,0.00,,,0.06,,2013-05-22 14:42:00,
2013-05-22 10:53:00,58.0,57.0,29.95,WNW,289,5.0,12.0,95,0.00,,,0.06,,2013-05-22 14:53:00,
2013-05-22 11:01:00,58.0,57.0,29.96,West,265,5.0,11.0,95,0.00,,,0.06,,2013-05-22 15:01:00,
2013-05-22 11:11:00,58.0,57.0,29.96,West,265,5.0,11.0,95,0.00,,,0.06,,2013-05-22 15:11:00,
2013-05-22 11:22:00,59.0,58.0,29.97,West,277,5.0,9.0,95,0.00,,,0.06,,2013-05-22 15:22:00,
2013-05-22 11:33:00,59.0,58.0,29.97,WSW,257,7.0,10.0,95,0.00,,,0.06,,2013-05-22 15:33:00,
2013-05-22 11:42:00,59.0,58.0,29.97,WSW,257,7.0,10.0,95,0.00,,,0.06,,2013-05-22 15:42:00,
2013-05-22 11:53:00,59.0,58.0,29.97,WSW,257,7.0,10.0,95,0.00,,,0.06,,2013-05-22 15:53:00,
2013-05-22 12:03:00,59.0,58.0,29.97,WSW,257,7.0,10.0,95,0.00,,,0.06,,2013-05-22 16:03:00,
2013-05-22 12:12:00,59.0,58.0,29.97,WSW,257,7.0,10.0,95,0.00,,,0.06,,2013-05-22 16:12:00,
2013-05-22 12:23:00,59.0,58.0,29.97,WSW,238,7.0,10.0,95,0.00,,,0.06,,2013-05-22 16:23:00,
2013-05-22 12:33:00,60.0,59.0,29.96,West,269,7.0,10.0,95,0.00,,,0.06,,2013-05-22 16:33:00,
2013-05-22 12:42:00,60.0,59.0,29.96,West,269,7.0,10.0,95,0.00,,,0.06,,2013-05-22 16:42:00,
2013-05-22 12:52:00,60.0,59.0,29.96,West,272,7.0,12.0,95,0.00,,,0.06,,2013-05-22 16:52:00,
2013-05-22 13:02:00,60.0,59.0,29.96,West,272,7.0,12.0,95,0.00,,,0.06,,2013-05-22 17:02:00,
2013-05-22 13:12:00,60.0,58.0,29.96,WSW,256,6.0,11.0,94,0.00,,,0.06,,2013-05-22 17:12:00,
2013-05-22 13:23:00,60.0,58.0,29.96,WSW,256,6.0,11.0,94,0.00,,,0.06,,2013-05-22 17:23:00,
2013-05-22 13:33:00,60.0,59.0,29.96,WSW,248,4.0,9.0,95,0.00,,,0.06,,2013-05-22 17:33:00,
2013-05-22 13:42:00,60.0,59.0,29.96,WSW,248,4.0,9.0,95,0.00,,,0.06,,2013-05-22 17:42:00,
2013-05-22 13:53:00,61.0,60.0,29.95,SSW,202,2.0,6.0,95,0.00,,,0.06,,2013-05-22 17:53:00,
2013-05-22 14:02:00,61.0,60.0,29.95,SW,225,1.0,6.0,95,0.00,,,0.06,,2013-05-22 18:02:00,
2013-05-22 14:14:00,61.0,60.0,29.95,SW,225,1.0,6.0,95,0.00,,,0.06,,2013-05-22 18:14:00,
2013-05-22 14:22:00,62.0,61.0,29.95,WSW,252,1.0,4.0,95,0.00,,,0.06,,2013-05-22 18:22:00,
2013-05-22 14:33:00,62.0,60.0,29.95,WSW,252,1.0,4.0,94,0.00,,,0.06,,2013-05-22 18:33:00,
2013-05-22 14:42:00,62.0,60.0,29.95,WSW,252,1.0,4.0,94,0.00,,,0.06,,2013-05-22 18:42:00,
2013-05-22 14:52:00,62.0,60.0,29.95,WSW,252,2.0,4.0,94,0.00,,,0.06,,2013-05-22 18:52:00,
2013-05-22 15:02:00,62.0,60.0,29.95,WSW,252,2.0,4.0,94,0.00,,,0.06,,2013-05-22 19:02:00,
2013-05-22 15:11:00,62.0,60.0,29.95,WSW,252,2.0,4.0,94,0.00,,,0.06,,2013-05-22 19:11:00,
2013-05-22 15:22:00,62.0,60.0,29.95,East,96,1.0,0.0,93,0.00,,,0.06,,2013-05-22 19:22:00,
2013-05-22 15:32:00,62.0,59.0,29.94,SE,134,2.0,8.0,89,0.00,,,0.06,,2013-05-22 19:32:00,
2013-05-22 15:42:00,62.0,59.0,29.94,SE,134,2.0,8.0,89,0.00,,,0.06,,2013-05-22 19:42:00,
2013-05-22 15:52:00,62.0,59.0,29.94,SE,134,2.0,8.0,89,0.00,,,0.06,,2013-05-22 19:52:00,
2013-05-22 16:02:00,62.0,59.0,29.94,SE,134,2.0,8.0,89,0.00,,,0.06,,2013-05-22 20:02:00,
2013-05-22 16:11:00,62.0,58.0,29.95,East,96,1.0,7.0,87,0.00,,,0.06,,2013-05-22 20:11:00,
2013-05-22 16:22:00,62.0,58.0,29.95,East,96,1.0,7.0,87,0.00,,,0.06,,2013-05-22 20:22:00,
2013-05-22 16:32:00,62.0,58.0,29.95,East,96,1.0,7.0,87,0.00,,,0.06,,2013-05-22 20:32:00,
2013-05-22 16:42:00,62.0,58.0,29.95,East,94,1.0,6.0,88,0.00,,,0.06,,2013-05-22 20:42:00,
2013-05-22 16:52:00,62.0,58.0,29.95,East,94,1.0,6.0,88,0.00,,,0.06,,2013-05-22 20:52:00,
2013-05-22 17:01:00,62.0,59.0,29.94,ENE,63,1.0,5.0,89,0.00,,,0.06,,2013-05-22 21:01:00,
2013-05-22 17:11:00,62.0,59.0,29.94,ENE,63,1.0,5.0,89,0.00,,,0.06,,2013-05-22 21:11:00,
2013-05-22 17:21:00,63.0,59.0,29.94,ESE,111,1.0,6.0,88,0.00,,,0.06,,2013-05-22 21:21:00,
2013-05-22 17:33:00,63.0,59.0,29.93,ENE,78,1.0,7.0,88,0.00,,,0.06,,2013-05-22 21:33:00,
2013-05-22 17:42:00,63.0,59.0,29.93,ENE,78,1.0,7.0,88,0.00,,,0.06,,2013-05-22 21:42:00,
2013-05-22 17:52:00,64.0,60.0,29.94,ENE,78,0.0,2.0,87,0.00,,,0.06,,2013-05-22 21:52:00,
2013-05-22 18:03:00,64.0,60.0,29.93,ENE,73,0.0,0.0,87,0.00,,,0.06,,2013-05-22 22:03:00,
2013-05-22 18:13:00,64.0,60.0,29.93,ENE,73,0.0,0.0,87,0.00,,,0.06,,2013-05-22 22:13:00,
2013-05-22 18:22:00,64.0,60.0,29.93,ENE,73,0.0,0.0,87,0.00,,,0.06,,2013-05-22 22:22:00,
2013-05-22 18:33:00,64.0,60.0,29.93,ENE,73,0.0,0.0,87,0.00,,,0.06,,2013-05-22 22:33:00,
2013-05-22 18:42:00,62.0,59.0,29.93,West,261,1.0,6.0,90,0.00,,,0.06,,2013-05-22 22:42:00,
2013-05-22 18:52:00,62.0,59.0,29.93,West,261,1.0,6.0,90,0.00,,,0.06,,2013-05-22 22:52:00,
2013-05-22 19:02:00,62.0,60.0,29.93,West,270,3.0,7.0,93,0.00,,,0.06,,2013-05-22 23:02:00,
2013-05-22 19:12:00,62.0,60.0,29.93,West,270,3.0,7.0,93,0.00,,,0.06,,2013-05-22 23:12:00,
2013-05-22 19:21:00,62.0,60.0,29.93,West,270,1.0,4.0,93,0.00,,,0.06,,2013-05-22 23:21:00,
2013-05-22 19:32:00,62.0,60.0,29.93,WSW,254,4.0,7.0,94,0.00,,,0.06,,2013-05-22 23:32:00,
2013-05-22 19:42:00,62.0,60.0,29.93,WSW,254,4.0,7.0,94,0.00,,,0.06,,2013-05-22 23:42:00,
2013-05-22 19:52:00,62.0,60.0,29.93,WSW,254,4.0,7.0,94,0.00,,,0.06,,2013-05-22 23:52:00,
2013-05-22 20:01:00,61.0,60.0,29.93,West,261,7.0,10.0,95,0.00,,,0.06,,2013-05-23 00:01:00,
2013-05-22 20:11:00,61.0,60.0,29.93,West,261,7.0,10.0,95,0.00,,,0.06,,2013-05-23 00:11:00,
2013-05-22 20:22:00,61.0,60.0,29.94,West,265,8.0,10.0,95,0.00,,,0.06,,2013-05-23 00:22:00,
2013-05-22 20:32:00,61.0,60.0,29.94,West,265,8.0,10.0,95,0.00,,,0.06,,2013-05-23 00:32:00,
2013-05-22 20:42:00,61.0,60.0,29.94,West,265,8.0,10.0,95,0.00,,,0.06,,2013-05-23 00:42:00,
2013-05-22 20:51:00,60.0,59.0,29.95,West,271,5.0,9.0,96,0.00,,,0.03,,2013-05-23 00:51:00,
2013-05-22 21:01:00,60.0,59.0,29.95,WSW,258,8.0,11.0,96,0.00,,,0.01,,2013-05-23 01:01:00,
2013-05-22 21:11:00,60.0,59.0,29.95,WSW,258,8.0,11.0,96,0.00,,,0.01,,2013-05-23 01:11:00,
2013-05-22 21:22:00,60.0,59.0,29.95,WSW,258,9.0,13.0,96,0.00,,,0.01,,2013-05-23 01:22:00,
2013-05-22 21:32:00,60.0,59.0,29.95,West,265,10.0,13.0,97,0.00,,,0.01,,2013-05-23 01:32:00,
2013-05-22 21:42:00,60.0,59.0,29.95,West,265,10.0,13.0,97,0.00,,,0.01,,2013-05-23 01:42:00,
2013-05-22 21:52:00,60.0,59.0,29.95,West,265,10.0,13.0,97,0.00,,,0.01,,2013-05-23 01:52:00,
2013-05-22 22:02:00,59.0,58.0,29.96,WNW,282,9.0,13.0,97,0.00,,,0.01,,2013-05-23 02:02:00,
2013-05-22 22:11:00,59.0,58.0,29.96,WNW,282,9.0,13.0,97,0.00,,,0.01,,2013-05-23 02:11:00,
2013-05-22 22:22:00,59.0,58.0,29.96,WNW,282,9.0,13.0,97,0.00,,,0.01,,2013-05-23 02:22:00,
2013-05-22 22:32:00,60.0,59.0,29.97,WSW,256,7.0,11.0,97,0.00,,,0.01,,2013-05-23 02:32:00,
2013-05-22 22:42:00,60.0,59.0,29.97,WSW,256,7.0,11.0,97,0.00,,,0.01,,2013-05-23 02:42:00,
2013-05-22 22:52:00,60.0,59.0,29.97,WSW,256,7.0,11.0,97,0.00,,,0.01,,2013-05-23 02:52:00,
2013-05-22 23:02:00,60.0,59.0,29.97,West,267,9.0,13.0,97,0.00,,,0.01,,2013-05-23 03:02:00,
2013-05-22 23:11:00,60.0,59.0,29.97,West,267,9.0,13.0,97,0.00,,,0.01,,2013-05-23 03:11:00,
2013-05-22 23:22:00,59.0,58.0,29.97,WSW,252,10.0,15.0,97,0.00,,,0.01,,2013-05-23 03:22:00,
2013-05-22 23:33:00,60.0,59.0,29.97,WSW,257,11.0,15.0,97,0.00,,,0.01,,2013-05-23 03:33:00,
2013-05-22 23:43:00,60.0,59.0,29.97,WSW,257,11.0,15.0,97,0.00,,,0.01,,2013-05-23 03:43:00,
2013-05-22 23:53:00,60.0,59.0,29.97,WSW,257,11.0,15.0,97,0.00,,,0.01,,2013-05-23 03:53:00,